Find Meteosat 13

NORAD ID: 64723 Int'l Des: 2025-143 Owner: EUMET Country: I-EUM operational
HEOCIRCULARGSO

現在のビュー

3D地球を読み込み中...

Meteosat 13について

説明を読み込み中...

次回通過

Passes for default location (London). Set your location on the main map for personalized predictions.

高度履歴

Loading altitude history...

軌道要素

1 64723U 25143A 26151.35782883 -.00000019 00000-0 00000+0 0 9996
2 64723 0.6182 335.4295 0001344 36.5942 2.1877 1.00271206 3257
Epoch: May 31, 2026 • Age: 14 hours

現在のステータス

高度 35791.2 km
速度 3.07 km/s
衛星直下点 -0.60°S, 3.48°W
打ち上げ日 Jul 1, 2025
運用期間 0.9 years
タイプ weather

技術仕様

分類 Payload
質量 3800.00 kg
乾燥質量 2000.00 kg
総質量 3800.00 kg
長さ 5.20 m
直径 2.30 m
スパン 10.00 m
形状 Box + 2 pan
製造者 THALES
バスタイプ MTG
フェーズステータス In Orbit
所有者/国 EUMET/I-EUM

Most Searched